Time,TemperatureF,DewpointF,PressureIn,WindDirection,WindDirectionDegrees,WindSpeedMPH,WindSpeedGustMPH,Humidity,HourlyPrecipIn,Conditions,Clouds,dailyrainin,SoftwareType,DateUTC
2013-05-11 00:01:00,63.9,56.2,29.89,WSW,257,0.0,2.7,76,0.04,,BKN110,0.00,VWS V13.00,2013-05-11 04:01:00,
2013-05-11 00:02:00,63.9,56.2,29.89,WSW,257,0.0,2.7,76,0.04,,BKN110,0.00,VWS V13.00,2013-05-11 04:02:00,
2013-05-11 00:07:00,63.7,56.3,29.89,WSW,248,0.0,2.7,77,0.04,,BKN110,0.00,VWS V13.00,2013-05-11 04:07:00,
2013-05-11 00:12:00,63.5,56.5,29.89,WSW,254,0.0,2.7,78,0.04,,BKN110,0.00,VWS V13.00,2013-05-11 04:12:00,
2013-05-11 00:17:00,63.5,56.5,29.89,WSW,254,0.0,2.7,78,0.04,,BKN110,0.00,VWS V13.00,2013-05-11 04:17:00,
2013-05-11 00:22:00,63.3,56.7,29.89,WSW,254,0.0,2.2,79,0.08,,BKN110,0.04,VWS V13.00,2013-05-11 04:22:00,
2013-05-11 00:27:00,63.1,56.5,29.89,WSW,254,0.0,2.2,79,0.08,,BKN110,0.04,VWS V13.00,2013-05-11 04:27:00,
2013-05-11 00:32:00,63.0,56.7,29.89,West,265,0.0,2.2,80,0.08,,BKN110,0.04,VWS V13.00,2013-05-11 04:32:00,
2013-05-11 00:37:00,62.6,56.3,29.89,West,265,0.0,2.2,80,0.08,,BKN110,0.08,VWS V13.00,2013-05-11 04:37:00,
2013-05-11 00:42:00,62.6,56.7,29.89,West,265,0.0,0.0,81,0.12,,BKN110,0.08,VWS V13.00,2013-05-11 04:42:00,
2013-05-11 00:47:00,62.4,56.9,29.89,West,265,0.0,0.0,82,0.12,,BKN110,0.08,VWS V13.00,2013-05-11 04:47:00,
2013-05-11 00:53:00,62.4,56.9,29.89,West,265,0.0,0.0,82,0.12,,BKN110,0.08,VWS V13.00,2013-05-11 04:53:00,
2013-05-11 00:58:00,62.2,56.7,29.89,West,265,0.0,0.0,82,0.12,,BKN110,0.08,VWS V13.00,2013-05-11 04:58:00,
2013-05-11 01:03:00,62.1,56.8,29.89,West,265,0.0,0.0,83,0.12,,BKN110,0.12,VWS V13.00,2013-05-11 05:03:00,
2013-05-11 01:08:00,61.9,56.7,29.86,West,265,0.0,0.0,83,0.12,,BKN110,0.12,VWS V13.00,2013-05-11 05:08:00,
2013-05-11 01:13:00,61.7,56.5,29.86,West,265,0.0,0.0,83,0.12,,BKN110,0.12,VWS V13.00,2013-05-11 05:13:00,
2013-05-11 01:18:00,61.7,56.8,29.86,West,265,0.0,0.0,84,0.16,,BKN110,0.16,VWS V13.00,2013-05-11 05:18:00,
2013-05-11 01:23:00,61.7,57.2,29.86,West,265,0.0,0.0,85,0.16,,BKN110,0.16,VWS V13.00,2013-05-11 05:23:00,
2013-05-11 01:28:00,61.5,57.0,29.86,West,265,0.0,0.0,85,0.16,,BKN110,0.16,VWS V13.00,2013-05-11 05:28:00,
2013-05-11 01:33:00,61.5,57.3,29.86,West,265,0.0,0.0,86,0.16,,BKN110,0.16,VWS V13.00,2013-05-11 05:33:00,
2013-05-11 01:38:00,61.5,57.3,29.86,West,265,0.0,0.0,86,0.16,,-RA,0.16,VWS V13.00,2013-05-11 05:38:00,
2013-05-11 01:43:00,61.3,57.4,29.86,West,265,0.0,0.0,87,0.08,,-RA,0.16,VWS V13.00,2013-05-11 05:43:00,
2013-05-11 01:48:00,61.3,57.4,29.86,West,265,0.0,0.0,87,0.08,,-RA,0.16,VWS V13.00,2013-05-11 05:48:00,
2013-05-11 01:53:00,61.3,57.4,29.83,West,265,0.0,0.0,87,0.08,,-RA,0.16,VWS V13.00,2013-05-11 05:53:00,
2013-05-11 01:58:00,61.3,57.8,29.83,West,271,0.0,2.7,88,0.12,,-RA,0.20,VWS V13.00,2013-05-11 05:58:00,
2013-05-11 02:04:00,61.2,57.6,29.83,West,271,0.0,0.0,88,0.12,,-RA,0.20,VWS V13.00,2013-05-11 06:04:00,
2013-05-11 02:09:00,61.2,57.9,29.83,SW,222,3.1,3.1,89,0.12,,-RA,0.20,VWS V13.00,2013-05-11 06:09:00,
2013-05-11 02:14:00,61.2,57.9,29.83,SW,217,2.2,3.6,89,0.12,,-RA,0.20,VWS V13.00,2013-05-11 06:14:00,
2013-05-11 02:19:00,61.0,57.7,29.83,SW,217,2.2,3.6,89,0.12,,-RA,0.20,VWS V13.00,2013-05-11 06:19:00,
2013-05-11 02:24:00,61.0,57.7,29.83,SSW,202,2.2,3.6,89,0.04,,-RA,0.20,VWS V13.00,2013-05-11 06:24:00,
2013-05-11 02:29:00,61.0,58.0,29.83,SSW,202,2.2,3.6,90,0.04,,-RA,0.20,VWS V13.00,2013-05-11 06:29:00,
2013-05-11 02:34:00,61.0,58.0,29.83,SSW,202,0.0,3.6,90,0.08,,-RA,0.24,VWS V13.00,2013-05-11 06:34:00,
2013-05-11 02:39:00,61.0,58.0,29.83,SSW,192,2.2,4.0,90,0.08,,-RA,0.24,VWS V13.00,2013-05-11 06:39:00,
2013-05-11 02:44:00,60.8,57.8,29.83,South,180,2.2,4.0,90,0.08,,-RA,0.24,VWS V13.00,2013-05-11 06:44:00,
2013-05-11 02:49:00,60.8,57.8,29.83,South,174,3.1,4.0,90,0.08,,-RA,0.24,VWS V13.00,2013-05-11 06:49:00,
2013-05-11 02:54:00,60.6,58.0,29.83,SSE,153,2.2,4.0,91,0.08,,-RA,0.24,VWS V13.00,2013-05-11 06:54:00,
2013-05-11 02:59:00,60.6,58.0,29.83,SSE,153,0.0,4.0,91,0.08,,-RA,0.24,VWS V13.00,2013-05-11 06:59:00,
2013-05-11 03:04:00,60.6,58.0,29.80,SSE,153,0.0,0.0,91,0.04,,-RA,0.24,VWS V13.00,2013-05-11 07:04:00,
2013-05-11 03:09:00,60.6,58.0,29.80,SSE,153,0.0,0.0,91,0.04,,-RA,0.24,VWS V13.00,2013-05-11 07:09:00,
2013-05-11 03:14:00,60.4,57.8,29.80,SSE,159,0.0,3.1,91,0.04,,-RA,0.24,VWS V13.00,2013-05-11 07:14:00,
2013-05-11 03:19:00,60.4,57.8,29.80,SSE,159,0.0,4.0,91,0.04,,-RA,0.24,VWS V13.00,2013-05-11 07:19:00,
2013-05-11 03:24:00,60.3,57.6,29.80,SSE,159,2.2,4.5,91,0.04,,-RA,0.24,VWS V13.00,2013-05-11 07:24:00,
2013-05-11 03:29:00,60.3,57.6,29.80,SSW,200,2.7,4.5,91,0.04,,-RA,0.24,VWS V13.00,2013-05-11 07:29:00,
2013-05-11 03:35:00,60.3,57.6,29.80,South,175,4.0,4.5,91,0.04,,-RA,0.24,VWS V13.00,2013-05-11 07:35:00,
2013-05-11 03:40:00,60.3,57.9,29.80,South,183,4.5,4.5,92,0.04,,-RA,0.24,VWS V13.00,2013-05-11 07:40:00,
2013-05-11 03:45:00,60.3,57.9,29.80,South,175,6.3,6.3,92,0.00,,-RA,0.24,VWS V13.00,2013-05-11 07:45:00,
2013-05-11 03:50:00,60.3,57.9,29.80,SSE,168,5.4,6.3,92,0.00,,-RA,0.24,VWS V13.00,2013-05-11 07:50:00,
2013-05-11 03:55:00,60.3,57.9,29.80,South,190,3.1,6.3,92,0.00,,-RA,0.24,VWS V13.00,2013-05-11 07:55:00,
2013-05-11 04:00:00,60.3,57.9,29.80,SSW,197,3.6,7.6,92,0.00,,-RA,0.24,VWS V13.00,2013-05-11 08:00:00,
2013-05-11 04:05:00,60.3,57.9,29.80,SSE,160,6.3,6.3,92,0.00,,-RA,0.24,VWS V13.00,2013-05-11 08:05:00,
2013-05-11 04:10:00,60.3,57.9,29.80,SSW,201,3.6,6.3,92,0.00,,-RA,0.24,VWS V13.00,2013-05-11 08:10:00,
2013-05-11 04:15:00,60.3,57.9,29.80,South,173,5.4,6.3,92,0.00,,-RA,0.24,VWS V13.00,2013-05-11 08:15:00,
2013-05-11 04:20:00,60.3,58.2,29.80,South,190,2.7,3.1,93,0.00,,-RA,0.24,VWS V13.00,2013-05-11 08:20:00,
2013-05-11 04:25:00,60.3,58.2,29.80,SSW,204,2.7,5.8,93,0.00,,-RA,0.24,VWS V13.00,2013-05-11 08:25:00,
2013-05-11 04:30:00,60.1,58.0,29.80,South,183,3.1,5.8,93,0.00,,-RA,0.24,VWS V13.00,2013-05-11 08:30:00,
2013-05-11 04:35:00,60.1,58.0,29.80,SSE,168,4.0,5.8,93,0.00,,,0.24,VWS V13.00,2013-05-11 08:35:00,
2013-05-11 04:40:00,60.1,58.0,29.80,SSW,206,0.0,4.0,93,0.00,,,0.24,VWS V13.00,2013-05-11 08:40:00,
2013-05-11 04:46:00,60.3,58.2,29.80,SSE,152,3.6,6.3,93,0.00,,,0.24,VWS V13.00,2013-05-11 08:46:00,
2013-05-11 04:51:00,60.3,58.2,29.80,SSW,202,3.1,6.3,93,0.00,,,0.24,VWS V13.00,2013-05-11 08:51:00,
2013-05-11 04:56:00,60.3,58.2,29.80,SSW,213,3.6,6.3,93,0.00,,,0.24,VWS V13.00,2013-05-11 08:56:00,
2013-05-11 05:01:00,60.3,58.2,29.80,South,178,5.4,5.8,93,0.00,,,0.24,VWS V13.00,2013-05-11 09:01:00,
2013-05-11 05:06:00,60.3,58.2,29.80,South,186,6.3,7.6,93,0.00,,,0.24,VWS V13.00,2013-05-11 09:06:00,
2013-05-11 05:11:00,60.3,58.2,29.80,South,181,4.9,7.6,93,0.00,,,0.24,VWS V13.00,2013-05-11 09:11:00,
2013-05-11 05:16:00,60.3,58.2,29.80,South,170,5.4,7.6,93,0.00,,,0.24,VWS V13.00,2013-05-11 09:16:00,
2013-05-11 05:21:00,60.3,58.2,29.80,South,177,3.1,6.7,93,0.00,,,0.24,VWS V13.00,2013-05-11 09:21:00,
2013-05-11 05:26:00,60.3,58.5,29.80,SSE,167,4.0,7.6,94,0.00,,,0.24,VWS V13.00,2013-05-11 09:26:00,
2013-05-11 05:31:00,60.3,58.5,29.80,South,173,4.5,7.6,94,0.00,,,0.24,VWS V13.00,2013-05-11 09:31:00,
2013-05-11 05:36:00,60.3,58.5,29.80,SSW,203,2.7,7.6,94,0.00,,-RA,0.24,VWS V13.00,2013-05-11 09:36:00,
2013-05-11 05:41:00,60.3,58.5,29.80,South,183,3.6,3.6,94,0.00,,-RA,0.24,VWS V13.00,2013-05-11 09:41:00,
2013-05-11 05:46:00,60.3,58.5,29.80,SW,222,3.1,4.0,94,0.00,,-RA,0.24,VWS V13.00,2013-05-11 09:46:00,
2013-05-11 05:51:00,60.3,58.5,29.78,SW,219,2.2,4.0,94,0.00,,-RA,0.24,VWS V13.00,2013-05-11 09:51:00,
2013-05-11 05:56:00,60.3,58.5,29.78,SSW,210,2.7,4.0,94,0.00,,-RA,0.24,VWS V13.00,2013-05-11 09:56:00,
2013-05-11 06:02:00,60.3,58.5,29.78,SSW,206,2.2,3.1,94,0.00,,-RA,0.24,VWS V13.00,2013-05-11 10:02:00,
2013-05-11 06:07:00,60.1,58.3,29.78,SSW,206,2.7,3.1,94,0.00,,-RA,0.24,VWS V13.00,2013-05-11 10:07:00,
2013-05-11 06:12:00,60.1,58.3,29.78,South,189,3.6,3.6,94,0.00,,-RA,0.24,VWS V13.00,2013-05-11 10:12:00,
2013-05-11 06:17:00,60.1,58.3,29.78,SSW,201,3.1,4.9,94,0.00,,-RA,0.24,VWS V13.00,2013-05-11 10:17:00,
2013-05-11 06:22:00,60.3,58.5,29.78,South,191,3.1,4.0,94,0.00,,-RA,0.24,VWS V13.00,2013-05-11 10:22:00,
2013-05-11 06:27:00,60.3,58.5,29.78,SSW,201,3.1,4.9,94,0.00,,-RA,0.24,VWS V13.00,2013-05-11 10:27:00,
2013-05-11 06:32:00,60.3,58.5,29.78,SSW,202,3.1,4.9,94,0.00,,-RA,0.24,VWS V13.00,2013-05-11 10:32:00,
2013-05-11 06:37:00,60.4,58.7,29.78,SSW,195,3.1,6.3,94,0.00,,OVC046,0.24,VWS V13.00,2013-05-11 10:37:00,
2013-05-11 06:42:00,60.4,58.7,29.78,SSW,207,2.7,3.1,94,0.00,,OVC046,0.24,VWS V13.00,2013-05-11 10:42:00,
2013-05-11 06:47:00,60.6,58.9,29.78,South,182,5.4,5.8,94,0.00,,-RA,0.24,VWS V13.00,2013-05-11 10:47:00,
2013-05-11 06:52:00,60.6,58.9,29.78,WSW,245,6.3,6.3,94,0.00,,-RA,0.24,VWS V13.00,2013-05-11 10:52:00,
2013-05-11 06:57:00,60.8,59.1,29.78,SW,214,0.0,6.3,94,0.00,,OVC046,0.24,VWS V13.00,2013-05-11 10:57:00,
2013-05-11 07:02:00,60.8,59.1,29.78,SSW,210,3.1,3.1,94,0.00,,OVC046,0.24,VWS V13.00,2013-05-11 11:02:00,
2013-05-11 07:07:00,61.0,59.2,29.78,South,190,2.7,5.4,94,0.00,,OVC046,0.24,VWS V13.00,2013-05-11 11:07:00,
2013-05-11 07:12:00,61.0,59.2,29.78,SSW,202,3.6,6.3,94,0.00,,OVC046,0.24,VWS V13.00,2013-05-11 11:12:00,
2013-05-11 07:17:00,61.2,59.4,29.78,SSW,208,3.1,6.3,94,0.00,,OVC046,0.24,VWS V13.00,2013-05-11 11:17:00,
2013-05-11 07:23:00,61.3,59.6,29.78,SSW,205,4.0,4.0,94,0.00,,OVC046,0.24,VWS V13.00,2013-05-11 11:23:00,
2013-05-11 07:28:00,61.5,59.8,29.78,SSW,194,3.6,5.4,94,0.00,,OVC046,0.24,VWS V13.00,2013-05-11 11:28:00,
2013-05-11 07:33:00,61.7,60.0,29.78,SSW,198,3.1,5.4,94,0.00,,OVC046,0.24,VWS V13.00,2013-05-11 11:33:00,
2013-05-11 07:38:00,61.9,60.1,29.78,SW,223,3.6,6.3,94,0.00,,OVC033,0.24,VWS V13.00,2013-05-11 11:38:00,
2013-05-11 07:43:00,61.9,60.1,29.78,West,269,4.0,6.3,94,0.00,,OVC033,0.24,VWS V13.00,2013-05-11 11:43:00,
2013-05-11 07:48:00,62.1,60.3,29.78,SSW,200,4.0,6.3,94,0.00,,OVC033,0.24,VWS V13.00,2013-05-11 11:48:00,
2013-05-11 07:53:00,62.1,60.3,29.80,SSW,208,4.0,6.3,94,0.00,,OVC033,0.24,VWS V13.00,2013-05-11 11:53:00,
2013-05-11 07:58:00,62.1,60.3,29.80,South,182,3.1,6.3,94,0.00,,OVC033,0.24,VWS V13.00,2013-05-11 11:58:00,
2013-05-11 08:03:00,62.1,60.3,29.80,SSW,213,3.6,5.8,94,0.00,,OVC033,0.24,VWS V13.00,2013-05-11 12:03:00,
2013-05-11 08:08:00,62.2,60.5,29.80,SW,223,3.1,5.8,94,0.00,,OVC033,0.24,VWS V13.00,2013-05-11 12:08:00,
2013-05-11 08:13:00,62.2,60.5,29.80,SSW,192,4.9,6.3,94,0.00,,OVC033,0.24,VWS V13.00,2013-05-11 12:13:00,
2013-05-11 08:18:00,62.4,60.7,29.78,SSW,198,3.1,6.3,94,0.00,,OVC033,0.24,VWS V13.00,2013-05-11 12:18:00,
2013-05-11 08:23:00,62.6,60.5,29.78,SSW,203,2.7,4.9,93,0.00,,OVC033,0.24,VWS V13.00,2013-05-11 12:23:00,
2013-05-11 08:29:00,62.8,60.7,29.78,SSW,213,4.9,5.4,93,0.00,,OVC033,0.24,VWS V13.00,2013-05-11 12:29:00,
2013-05-11 08:34:00,63.0,60.9,29.78,SW,216,3.1,5.8,93,0.00,,OVC033,0.24,VWS V13.00,2013-05-11 12:34:00,
2013-05-11 08:39:00,63.0,60.9,29.78,SW,216,3.6,8.1,93,0.00,,OVC019,0.24,VWS V13.00,2013-05-11 12:39:00,
2013-05-11 08:44:00,63.3,61.3,29.78,SSW,209,3.1,7.6,93,0.00,,OVC019,0.24,VWS V13.00,2013-05-11 12:44:00,
2013-05-11 08:49:00,64.9,62.6,29.78,SSW,192,3.6,7.6,92,0.00,,OVC019,0.24,VWS V13.00,2013-05-11 12:49:00,
2013-05-11 08:54:00,65.3,62.9,29.78,SSW,212,5.4,7.6,92,0.00,,OVC019,0.24,VWS V13.00,2013-05-11 12:54:00,
2013-05-11 08:59:00,65.3,62.9,29.78,SW,231,5.4,7.6,92,0.00,,OVC019,0.24,VWS V13.00,2013-05-11 12:59:00,
2013-05-11 09:04:00,65.5,63.1,29.78,South,179,5.8,6.3,92,0.00,,OVC019,0.24,VWS V13.00,2013-05-11 13:04:00,
2013-05-11 09:09:00,65.5,62.8,29.78,South,188,5.8,6.3,91,0.00,,OVC019,0.24,VWS V13.00,2013-05-11 13:09:00,
2013-05-11 09:14:00,65.3,62.6,29.78,SW,223,3.6,6.3,91,0.00,,OVC019,0.24,VWS V13.00,2013-05-11 13:14:00,
2013-05-11 09:19:00,65.3,62.3,29.78,WNW,284,6.3,6.3,90,0.00,,OVC019,0.24,VWS V13.00,2013-05-11 13:19:00,
2013-05-11 09:24:00,65.1,62.1,29.78,SW,217,3.1,6.3,90,0.00,,OVC019,0.24,VWS V13.00,2013-05-11 13:24:00,
2013-05-11 09:29:00,65.3,62.3,29.78,SSW,213,6.3,6.3,90,0.00,,OVC019,0.24,VWS V13.00,2013-05-11 13:29:00,
2013-05-11 09:35:00,65.1,62.1,29.78,South,183,11.0,11.0,90,0.00,,OVC019,0.24,VWS V13.00,2013-05-11 13:35:00,
2013-05-11 09:40:00,65.1,61.8,29.78,South,181,4.0,11.0,89,0.00,,OVC016,0.24,VWS V13.00,2013-05-11 13:40:00,
2013-05-11 09:45:00,65.1,61.8,29.78,WSW,255,4.0,7.6,89,0.00,,OVC016,0.24,VWS V13.00,2013-05-11 13:45:00,
2013-05-11 09:50:00,65.1,61.8,29.78,South,184,6.3,7.6,89,0.00,,OVC016,0.24,VWS V13.00,2013-05-11 13:50:00,
2013-05-11 09:55:00,65.1,61.8,29.78,South,182,6.7,7.6,89,0.00,,OVC016,0.24,VWS V13.00,2013-05-11 13:55:00,
2013-05-11 10:00:00,64.9,61.6,29.78,South,185,3.6,8.7,89,0.00,,OVC016,0.24,VWS V13.00,2013-05-11 14:00:00,
2013-05-11 10:05:00,64.8,61.5,29.78,SSW,212,3.6,8.3,89,0.00,,OVC016,0.24,VWS V13.00,2013-05-11 14:05:00,
2013-05-11 10:10:00,64.6,61.3,29.78,South,190,3.1,8.3,89,0.00,,OVC016,0.24,VWS V13.00,2013-05-11 14:10:00,
2013-05-11 10:15:00,64.6,61.3,29.78,South,191,4.0,8.3,89,0.00,,OVC016,0.24,VWS V13.00,2013-05-11 14:15:00,
2013-05-11 10:20:00,64.4,61.1,29.78,SW,220,3.6,8.3,89,0.00,,OVC016,0.24,VWS V13.00,2013-05-11 14:20:00,
2013-05-11 10:25:00,64.4,61.1,29.78,SSW,207,5.4,5.8,89,0.00,,OVC016,0.24,VWS V13.00,2013-05-11 14:25:00,
2013-05-11 10:30:00,64.4,61.1,29.78,SSW,196,3.1,6.3,89,0.00,,OVC016,0.24,VWS V13.00,2013-05-11 14:30:00,
2013-05-11 10:35:00,64.4,61.1,29.78,SSW,202,4.0,6.3,89,0.00,,OVC023,0.24,VWS V13.00,2013-05-11 14:35:00,
2013-05-11 10:40:00,64.4,61.1,29.78,SSW,201,5.8,5.8,89,0.00,,OVC023,0.24,VWS V13.00,2013-05-11 14:40:00,
2013-05-11 10:45:00,64.6,61.3,29.78,South,183,5.4,8.1,89,0.00,,OVC023,0.24,VWS V13.00,2013-05-11 14:45:00,
2013-05-11 10:50:00,64.9,61.6,29.78,South,178,4.0,8.1,89,0.00,,OVC023,0.24,VWS V13.00,2013-05-11 14:50:00,
2013-05-11 10:55:00,65.1,61.8,29.78,South,181,3.6,8.1,89,0.00,,OVC023,0.24,VWS V13.00,2013-05-11 14:55:00,
2013-05-11 11:01:00,65.3,62.0,29.78,SW,226,6.3,6.3,89,0.00,,OVC023,0.24,VWS V13.00,2013-05-11 15:01:00,
2013-05-11 11:06:00,65.1,61.8,29.78,SW,219,0.0,6.3,89,0.00,,OVC023,0.24,VWS V13.00,2013-05-11 15:06:00,
2013-05-11 11:11:00,65.1,61.8,29.78,SSW,203,3.1,6.3,89,0.00,,OVC023,0.24,VWS V13.00,2013-05-11 15:11:00,
2013-05-11 11:16:00,65.5,62.2,29.78,WSW,254,4.0,7.6,89,0.00,,OVC023,0.24,VWS V13.00,2013-05-11 15:16:00,
2013-05-11 11:21:00,65.8,62.2,29.75,SSW,209,4.0,7.6,88,0.00,,OVC023,0.24,VWS V13.00,2013-05-11 15:21:00,
2013-05-11 11:26:00,66.2,62.5,29.75,South,176,5.4,7.6,88,0.00,,OVC023,0.24,VWS V13.00,2013-05-11 15:26:00,
2013-05-11 11:31:00,66.4,62.4,29.75,South,173,4.0,7.6,87,0.00,,OVC023,0.24,VWS V13.00,2013-05-11 15:31:00,
2013-05-11 11:36:00,66.4,62.4,29.78,SW,220,3.6,8.3,87,0.00,,OVC029,0.24,VWS V13.00,2013-05-11 15:36:00,
2013-05-11 11:41:00,66.2,61.9,29.78,SSW,200,2.7,3.6,86,0.00,,OVC029,0.24,VWS V13.00,2013-05-11 15:41:00,
2013-05-11 11:46:00,66.2,61.9,29.78,SSW,208,3.1,5.8,86,0.00,,OVC029,0.24,VWS V13.00,2013-05-11 15:46:00,
2013-05-11 11:51:00,66.2,61.9,29.78,SW,219,5.4,5.8,86,0.00,,OVC029,0.24,VWS V13.00,2013-05-11 15:51:00,
2013-05-11 11:56:00,66.2,61.9,29.78,SSW,209,2.2,6.3,86,0.00,,OVC055,0.24,VWS V13.00,2013-05-11 15:56:00,
2013-05-11 12:01:00,66.0,61.7,29.78,SW,214,2.2,5.8,86,0.00,,OVC055,0.24,VWS V13.00,2013-05-11 16:01:00,
2013-05-11 12:06:00,66.2,61.6,29.78,South,187,0.0,5.8,85,0.00,,OVC055,0.24,VWS V13.00,2013-05-11 16:06:00,
2013-05-11 12:12:00,66.2,61.6,29.78,SSW,195,5.8,5.8,85,0.00,,OVC055,0.24,VWS V13.00,2013-05-11 16:12:00,
2013-05-11 12:17:00,66.4,61.7,29.78,South,185,0.0,5.8,85,0.00,,OVC055,0.24,VWS V13.00,2013-05-11 16:17:00,
2013-05-11 12:22:00,66.4,61.4,29.75,SW,216,0.0,0.0,84,0.00,,OVC055,0.24,VWS V13.00,2013-05-11 16:22:00,
2013-05-11 12:27:00,66.6,61.6,29.75,South,178,5.4,7.6,84,0.00,,OVC055,0.24,VWS V13.00,2013-05-11 16:27:00,
2013-05-11 12:32:00,66.4,61.4,29.75,SSW,196,3.6,7.6,84,0.00,,OVC060,0.24,VWS V13.00,2013-05-11 16:32:00,
2013-05-11 12:37:00,66.6,61.6,29.75,SSW,209,0.0,7.6,84,0.00,,OVC060,0.24,VWS V13.00,2013-05-11 16:37:00,
2013-05-11 12:42:00,66.7,61.8,29.75,SSW,206,4.0,5.8,84,0.00,,OVC060,0.24,VWS V13.00,2013-05-11 16:42:00,
2013-05-11 12:47:00,67.3,62.0,29.75,South,188,4.9,6.3,83,0.00,,OVC060,0.24,VWS V13.00,2013-05-11 16:47:00,
2013-05-11 12:52:00,68.0,62.3,29.75,WNW,290,4.5,7.2,82,0.00,,OVC060,0.24,VWS V13.00,2013-05-11 16:52:00,
2013-05-11 12:57:00,69.3,63.2,29.75,SW,217,2.7,8.3,81,0.00,,OVC060,0.24,VWS V13.00,2013-05-11 16:57:00,
2013-05-11 13:02:00,70.3,63.9,29.75,SSE,168,3.6,5.4,80,0.00,,OVC060,0.24,VWS V13.00,2013-05-11 17:02:00,
2013-05-11 13:07:00,69.6,62.8,29.75,South,190,5.4,6.3,79,0.00,,OVC060,0.24,VWS V13.00,2013-05-11 17:07:00,
2013-05-11 13:12:00,69.3,62.1,29.75,SW,235,4.9,8.1,78,0.00,,OVC060,0.24,VWS V13.00,2013-05-11 17:12:00,
2013-05-11 13:17:00,69.4,61.9,29.75,SSW,205,5.8,8.1,77,0.00,,OVC060,0.24,VWS V13.00,2013-05-11 17:17:00,
2013-05-11 13:22:00,70.0,61.7,29.75,SSE,167,2.7,4.0,75,0.00,,OVC060,0.24,VWS V13.00,2013-05-11 17:22:00,
2013-05-11 13:27:00,70.5,61.8,29.75,South,184,3.1,5.8,74,0.00,,OVC060,0.24,VWS V13.00,2013-05-11 17:27:00,
2013-05-11 13:32:00,70.3,60.9,29.75,SW,236,4.9,8.1,72,0.00,,OVC060,0.24,VWS V13.00,2013-05-11 17:32:00,
2013-05-11 13:37:00,69.6,59.8,29.72,SW,221,3.1,8.3,71,0.00,,OVC055,0.24,VWS V13.00,2013-05-11 17:37:00,
2013-05-11 13:43:00,69.6,59.8,29.72,South,177,2.7,4.9,71,0.00,,OVC055,0.24,VWS V13.00,2013-05-11 17:43:00,
2013-05-11 13:48:00,69.1,59.3,29.72,SW,221,3.6,7.2,71,0.00,,OVC055,0.24,VWS V13.00,2013-05-11 17:48:00,
2013-05-11 13:53:00,68.7,59.3,29.72,SSE,163,4.0,7.2,72,0.00,,OVC055,0.24,VWS V13.00,2013-05-11 17:53:00,
2013-05-11 13:58:00,68.2,59.2,29.72,South,180,0.0,7.2,73,0.00,,OVC055,0.24,VWS V13.00,2013-05-11 17:58:00,
2013-05-11 14:03:00,68.0,59.4,29.72,South,179,2.7,3.1,74,0.00,,OVC055,0.24,VWS V13.00,2013-05-11 18:03:00,
2013-05-11 14:08:00,67.8,59.6,29.72,SSW,211,3.6,5.8,75,0.00,,OVC055,0.24,VWS V13.00,2013-05-11 18:08:00,
2013-05-11 14:13:00,67.5,59.6,29.72,South,183,3.1,5.8,76,0.00,,OVC055,0.24,VWS V13.00,2013-05-11 18:13:00,
2013-05-11 14:18:00,67.5,60.4,29.72,SW,217,4.0,5.8,78,0.00,,OVC055,0.24,VWS V13.00,2013-05-11 18:18:00,
2013-05-11 14:23:00,67.1,60.0,29.72,SSE,164,3.1,5.4,78,0.04,,OVC055,0.28,VWS V13.00,2013-05-11 18:23:00,
2013-05-11 14:28:00,66.7,60.0,29.72,South,180,2.7,6.3,79,0.04,,OVC055,0.28,VWS V13.00,2013-05-11 18:28:00,
2013-05-11 14:33:00,66.4,60.0,29.72,West,264,0.0,6.3,80,0.04,,OVC055,0.28,VWS V13.00,2013-05-11 18:33:00,
2013-05-11 14:38:00,66.2,60.2,29.72,ESE,115,0.0,6.3,81,0.04,,BKN060,0.28,VWS V13.00,2013-05-11 18:38:00,
2013-05-11 14:43:00,65.8,60.2,29.72,ESE,115,0.0,0.0,82,0.04,,BKN060,0.28,VWS V13.00,2013-05-11 18:43:00,
2013-05-11 14:48:00,65.3,60.0,29.72,SW,221,3.6,7.6,83,0.24,,BKN060,0.47,VWS V13.00,2013-05-11 18:48:00,
2013-05-11 14:54:00,64.8,59.8,29.72,West,264,2.2,7.6,84,0.28,,BKN060,0.51,VWS V13.00,2013-05-11 18:54:00,
2013-05-11 14:59:00,64.4,59.5,29.72,SSW,209,0.0,8.3,84,0.31,,BKN060,0.55,VWS V13.00,2013-05-11 18:59:00,
2013-05-11 15:04:00,64.2,59.6,29.72,SSW,210,3.1,3.1,85,0.31,,BKN060,0.55,VWS V13.00,2013-05-11 19:04:00,
2013-05-11 15:09:00,63.9,59.6,29.72,SSW,205,0.0,4.0,86,0.35,,BKN060,0.59,VWS V13.00,2013-05-11 19:09:00,
2013-05-11 15:14:00,63.9,59.6,29.72,West,276,0.0,4.0,86,0.35,,BKN060,0.59,VWS V13.00,2013-05-11 19:14:00,
2013-05-11 15:19:00,63.7,59.7,29.72,West,276,0.0,4.0,87,0.35,,BKN060,0.59,VWS V13.00,2013-05-11 19:19:00,
2013-05-11 15:24:00,63.9,59.9,29.72,WSW,254,0.0,4.0,87,0.35,,BKN060,0.59,VWS V13.00,2013-05-11 19:24:00,
2013-05-11 15:29:00,64.2,60.3,29.72,WSW,254,0.0,4.0,87,0.35,,BKN060,0.59,VWS V13.00,2013-05-11 19:29:00,
2013-05-11 15:34:00,64.6,61.0,29.72,West,271,0.0,4.0,88,0.35,,BKN060,0.59,VWS V13.00,2013-05-11 19:34:00,
2013-05-11 15:39:00,64.9,61.3,29.72,West,266,0.0,5.4,88,0.35,,-RA,0.59,VWS V13.00,2013-05-11 19:39:00,
2013-05-11 15:44:00,65.3,62.0,29.72,South,191,0.0,2.7,89,0.31,,-RA,0.59,VWS V13.00,2013-05-11 19:44:00,
2013-05-11 15:49:00,65.7,62.3,29.72,South,180,2.7,4.9,89,0.31,,-RA,0.59,VWS V13.00,2013-05-11 19:49:00,
2013-05-11 15:54:00,66.4,63.0,29.72,South,180,3.1,4.9,89,0.31,,-RA,0.59,VWS V13.00,2013-05-11 19:54:00,
2013-05-11 16:00:00,66.4,63.0,29.72,SW,223,2.7,4.9,89,0.31,,-RA,0.59,VWS V13.00,2013-05-11 20:00:00,
2013-05-11 16:05:00,66.9,63.6,29.72,South,184,0.0,4.0,89,0.04,,-RA,0.59,VWS V13.00,2013-05-11 20:05:00,
2013-05-11 16:10:00,67.3,63.9,29.72,South,184,3.1,5.4,89,0.04,,-RA,0.59,VWS V13.00,2013-05-11 20:10:00,
2013-05-11 16:15:00,66.4,63.0,29.72,South,186,0.0,5.4,89,0.04,,-RA,0.59,VWS V13.00,2013-05-11 20:15:00,
2013-05-11 16:20:00,66.6,62.9,29.72,SSW,198,2.2,5.4,88,0.04,,-RA,0.59,VWS V13.00,2013-05-11 20:20:00,
2013-05-11 16:25:00,67.3,63.6,29.72,WSW,254,2.7,4.0,88,0.00,,-RA,0.59,VWS V13.00,2013-05-11 20:25:00,
2013-05-11 16:30:00,68.0,64.0,29.72,West,265,3.6,4.0,87,0.00,,-RA,0.59,VWS V13.00,2013-05-11 20:30:00,
2013-05-11 16:35:00,68.4,64.0,29.72,West,261,3.1,4.9,86,0.00,,BKN029,0.59,VWS V13.00,2013-05-11 20:35:00,
2013-05-11 16:40:00,68.2,63.2,29.72,West,265,2.7,2.7,84,0.00,,BKN029,0.59,VWS V13.00,2013-05-11 20:40:00,
2013-05-11 16:45:00,67.8,62.5,29.72,SW,223,0.0,5.8,83,0.00,,BKN029,0.59,VWS V13.00,2013-05-11 20:45:00,
2013-05-11 16:50:00,68.2,62.8,29.72,West,276,5.8,5.8,83,0.00,,BKN029,0.59,VWS V13.00,2013-05-11 20:50:00,
2013-05-11 16:55:00,68.2,62.5,29.72,South,190,0.0,5.8,82,0.00,,BKN049,0.59,VWS V13.00,2013-05-11 20:55:00,
2013-05-11 17:00:00,68.2,62.5,29.72,WNW,285,0.0,0.0,82,0.00,,BKN049,0.59,VWS V13.00,2013-05-11 21:00:00,
2013-05-11 17:05:00,68.4,62.7,29.72,South,181,3.6,3.6,82,0.00,,BKN049,0.59,VWS V13.00,2013-05-11 21:05:00,
2013-05-11 17:10:00,68.4,62.7,29.72,West,276,2.7,6.3,82,0.00,,BKN049,0.59,VWS V13.00,2013-05-11 21:10:00,
2013-05-11 17:16:00,67.8,61.4,29.72,SW,227,3.1,6.3,80,0.00,,BKN049,0.59,VWS V13.00,2013-05-11 21:16:00,
2013-05-11 17:21:00,67.5,61.1,29.72,South,186,4.0,4.0,80,0.00,,BKN049,0.59,VWS V13.00,2013-05-11 21:21:00,
2013-05-11 17:26:00,67.3,60.9,29.72,South,188,0.0,5.4,80,0.00,,BKN049,0.59,VWS V13.00,2013-05-11 21:26:00,
2013-05-11 17:31:00,67.5,61.1,29.72,SW,217,4.0,5.4,80,0.00,,BKN049,0.59,VWS V13.00,2013-05-11 21:31:00,
2013-05-11 17:36:00,67.5,60.7,29.69,West,270,3.1,5.8,79,0.00,,SCT060,0.59,VWS V13.00,2013-05-11 21:36:00,
2013-05-11 17:41:00,67.3,60.2,29.69,SW,223,0.0,2.7,78,0.00,,SCT060,0.59,VWS V13.00,2013-05-11 21:41:00,
2013-05-11 17:46:00,67.1,60.0,29.69,WNW,285,3.1,3.6,78,0.00,,SCT060,0.59,VWS V13.00,2013-05-11 21:46:00,
2013-05-11 17:51:00,67.1,60.0,29.72,NNW,327,2.7,4.0,78,0.00,,SCT060,0.59,VWS V13.00,2013-05-11 21:51:00,
2013-05-11 17:56:00,67.1,60.0,29.72,West,264,2.2,4.9,78,0.00,,SCT060,0.59,VWS V13.00,2013-05-11 21:56:00,
2013-05-11 18:01:00,66.9,59.5,29.72,WSW,257,0.0,2.2,77,0.00,,SCT060,0.59,VWS V13.00,2013-05-11 22:01:00,
2013-05-11 18:06:00,66.7,59.3,29.69,West,276,0.0,3.1,77,0.00,,SCT060,0.59,VWS V13.00,2013-05-11 22:06:00,
2013-05-11 18:11:00,66.6,59.5,29.69,WSW,237,0.0,3.1,78,0.00,,SCT060,0.59,VWS V13.00,2013-05-11 22:11:00,
2013-05-11 18:16:00,66.4,59.7,29.69,WSW,237,0.0,3.1,79,0.00,,SCT060,0.59,VWS V13.00,2013-05-11 22:16:00,
2013-05-11 18:21:00,66.4,59.7,29.69,WSW,237,0.0,0.0,79,0.00,,SCT060,0.59,VWS V13.00,2013-05-11 22:21:00,
2013-05-11 18:26:00,66.2,59.9,29.69,WSW,237,0.0,0.0,80,0.00,,SCT060,0.59,VWS V13.00,2013-05-11 22:26:00,
2013-05-11 18:32:00,66.0,60.0,29.69,WSW,237,0.0,0.0,81,0.00,,SCT060,0.59,VWS V13.00,2013-05-11 22:32:00,
2013-05-11 18:37:00,65.8,59.8,29.72,WSW,237,0.0,0.0,81,0.00,,SCT090,0.59,VWS V13.00,2013-05-11 22:37:00,
2013-05-11 18:42:00,65.7,59.7,29.72,WSW,237,0.0,0.0,81,0.00,,SCT090,0.59,VWS V13.00,2013-05-11 22:42:00,
2013-05-11 18:47:00,65.7,59.7,29.72,WSW,243,0.0,2.2,81,0.00,,SCT090,0.59,VWS V13.00,2013-05-11 22:47:00,
2013-05-11 18:52:00,65.5,59.8,29.69,WSW,243,0.0,2.2,82,0.00,,SCT090,0.59,VWS V13.00,2013-05-11 22:52:00,
2013-05-11 18:57:00,65.3,59.7,29.69,WSW,243,0.0,2.2,82,0.00,,SCT090,0.59,VWS V13.00,2013-05-11 22:57:00,
2013-05-11 19:02:00,65.1,59.5,29.69,WSW,243,0.0,0.0,82,0.00,,SCT090,0.59,VWS V13.00,2013-05-11 23:02:00,
2013-05-11 19:07:00,64.9,59.3,29.72,WSW,243,0.0,0.0,82,0.00,,SCT090,0.59,VWS V13.00,2013-05-11 23:07:00,
2013-05-11 19:12:00,64.8,59.5,29.72,WSW,243,0.0,0.0,83,0.00,,SCT090,0.59,VWS V13.00,2013-05-11 23:12:00,
2013-05-11 19:17:00,64.8,59.5,29.72,WSW,243,0.0,0.0,83,0.00,,SCT090,0.59,VWS V13.00,2013-05-11 23:17:00,
2013-05-11 19:22:00,64.6,59.6,29.72,WSW,243,0.0,0.0,84,0.00,,SCT090,0.59,VWS V13.00,2013-05-11 23:22:00,
2013-05-11 19:27:00,64.6,59.6,29.72,WSW,243,0.0,0.0,84,0.00,,SCT090,0.59,VWS V13.00,2013-05-11 23:27:00,
2013-05-11 19:32:00,64.4,59.5,29.72,WSW,243,0.0,0.0,84,0.00,,SCT090,0.59,VWS V13.00,2013-05-11 23:32:00,
2013-05-11 19:37:00,64.2,60.0,29.72,WSW,243,0.0,0.0,86,0.00,,SCT095,0.59,VWS V13.00,2013-05-11 23:37:00,
2013-05-11 19:42:00,64.2,60.0,29.72,WSW,243,0.0,0.0,86,0.00,,SCT095,0.59,VWS V13.00,2013-05-11 23:42:00,
2013-05-11 19:48:00,64.2,60.3,29.72,WSW,243,0.0,0.0,87,0.00,,SCT095,0.59,VWS V13.00,2013-05-11 23:48:00,
2013-05-11 19:53:00,64.0,60.1,29.72,WSW,243,0.0,0.0,87,0.04,,SCT095,0.63,VWS V13.00,2013-05-11 23:53:00,
2013-05-11 19:58:00,63.9,59.9,29.72,WSW,243,0.0,0.0,87,0.04,,SCT095,0.63,VWS V13.00,2013-05-11 23:58:00,
2013-05-11 20:03:00,63.9,60.2,29.72,WSW,243,0.0,0.0,88,0.04,,SCT095,0.63,VWS V13.00,2013-05-12 00:03:00,
2013-05-11 20:08:00,63.9,60.2,29.72,WSW,238,0.0,0.0,88,0.04,,SCT095,0.63,VWS V13.00,2013-05-12 00:08:00,
2013-05-11 20:13:00,63.7,60.4,29.72,WSW,237,0.0,0.0,89,0.04,,-RA,0.63,VWS V13.00,2013-05-12 00:13:00,
2013-05-11 20:18:00,63.5,60.2,29.72,WSW,237,0.0,0.0,89,0.04,,-RA,0.63,VWS V13.00,2013-05-12 00:18:00,
2013-05-11 20:23:00,63.5,60.2,29.72,WSW,237,0.0,0.0,89,0.04,,-RA,0.63,VWS V13.00,2013-05-12 00:23:00,
2013-05-11 20:28:00,63.5,60.2,29.72,WSW,237,0.0,0.0,89,0.04,,-RA,0.63,VWS V13.00,2013-05-12 00:28:00,
2013-05-11 20:33:00,63.3,60.0,29.72,WSW,237,0.0,0.0,89,0.04,,-RA,0.63,VWS V13.00,2013-05-12 00:33:00,
2013-05-11 20:38:00,63.1,60.2,29.72,WSW,237,0.0,0.0,90,0.04,,-RA,0.63,VWS V13.00,2013-05-12 00:38:00,
2013-05-11 20:43:00,63.1,60.2,29.72,WSW,237,0.0,0.0,90,0.04,,-RA,0.63,VWS V13.00,2013-05-12 00:43:00,
2013-05-11 20:48:00,63.0,60.0,29.72,WSW,237,0.0,0.0,90,0.04,,-RA,0.63,VWS V13.00,2013-05-12 00:48:00,
2013-05-11 20:53:00,63.0,60.0,29.72,WSW,237,0.0,0.0,90,0.04,,-RA,0.63,VWS V13.00,2013-05-12 00:53:00,
2013-05-11 20:58:00,63.0,60.0,29.72,WSW,237,0.0,0.0,90,0.04,,-RA,0.63,VWS V13.00,2013-05-12 00:58:00,
2013-05-11 21:04:00,62.8,60.1,29.72,WSW,237,0.0,0.0,91,0.00,,-RA,0.63,VWS V13.00,2013-05-12 01:04:00,
2013-05-11 21:09:00,62.8,60.1,29.72,West,266,0.0,0.0,91,0.00,,-RA,0.63,VWS V13.00,2013-05-12 01:09:00,
2013-05-11 21:14:00,62.8,60.1,29.72,West,266,0.0,0.0,91,0.00,,-RA,0.63,VWS V13.00,2013-05-12 01:14:00,
2013-05-11 21:19:00,62.6,59.9,29.72,WSW,256,0.0,0.0,91,0.00,,-RA,0.63,VWS V13.00,2013-05-12 01:19:00,
2013-05-11 21:24:00,62.6,59.9,29.72,WSW,256,0.0,0.0,91,0.00,,-RA,0.63,VWS V13.00,2013-05-12 01:24:00,
2013-05-11 21:29:00,62.4,60.1,29.72,WSW,256,0.0,0.0,92,0.00,,-RA,0.63,VWS V13.00,2013-05-12 01:29:00,
2013-05-11 21:34:00,62.2,59.9,29.72,WSW,256,0.0,0.0,92,0.00,,-RA,0.63,VWS V13.00,2013-05-12 01:34:00,
2013-05-11 21:39:00,62.1,59.7,29.72,WSW,256,0.0,0.0,92,0.00,,CLR,0.63,VWS V13.00,2013-05-12 01:39:00,
2013-05-11 21:44:00,61.9,59.5,29.72,WSW,256,0.0,0.0,92,0.00,,CLR,0.63,VWS V13.00,2013-05-12 01:44:00,
2013-05-11 21:49:00,61.7,59.4,29.72,West,263,0.0,0.0,92,0.00,,CLR,0.63,VWS V13.00,2013-05-12 01:49:00,
2013-05-11 21:54:00,61.5,59.2,29.72,West,263,0.0,0.0,92,0.00,,CLR,0.63,VWS V13.00,2013-05-12 01:54:00,
2013-05-11 21:59:00,61.3,59.0,29.72,West,263,0.0,0.0,92,0.00,,CLR,0.63,VWS V13.00,2013-05-12 01:59:00,
2013-05-11 22:04:00,61.2,58.8,29.72,West,263,0.0,0.0,92,0.00,,CLR,0.63,VWS V13.00,2013-05-12 02:04:00,
2013-05-11 22:09:00,61.0,58.6,29.72,West,263,0.0,0.0,92,0.00,,CLR,0.63,VWS V13.00,2013-05-12 02:09:00,
2013-05-11 22:14:00,60.8,58.5,29.72,West,263,0.0,0.0,92,0.00,,CLR,0.63,VWS V13.00,2013-05-12 02:14:00,
2013-05-11 22:19:00,60.6,58.3,29.72,West,263,0.0,0.0,92,0.00,,CLR,0.63,VWS V13.00,2013-05-12 02:19:00,
2013-05-11 22:25:00,60.4,58.1,29.72,West,263,0.0,0.0,92,0.00,,CLR,0.63,VWS V13.00,2013-05-12 02:25:00,
2013-05-11 22:30:00,60.4,58.1,29.72,West,263,0.0,0.0,92,0.00,,CLR,0.63,VWS V13.00,2013-05-12 02:30:00,
2013-05-11 22:35:00,60.3,57.9,29.72,West,263,0.0,0.0,92,0.00,,CLR,0.63,VWS V13.00,2013-05-12 02:35:00,
2013-05-11 22:40:00,60.3,57.9,29.72,West,263,0.0,0.0,92,0.00,,BKN110,0.63,VWS V13.00,2013-05-12 02:40:00,
2013-05-11 22:45:00,60.1,57.8,29.72,West,263,0.0,0.0,92,0.00,,BKN110,0.63,VWS V13.00,2013-05-12 02:45:00,
2013-05-11 22:50:00,59.9,57.6,29.72,West,263,0.0,0.0,92,0.00,,BKN110,0.63,VWS V13.00,2013-05-12 02:50:00,
2013-05-11 22:55:00,59.7,57.4,29.72,West,263,0.0,0.0,92,0.00,,BKN110,0.63,VWS V13.00,2013-05-12 02:55:00,
2013-05-11 23:00:00,59.5,57.2,29.72,West,263,0.0,0.0,92,0.00,,BKN110,0.63,VWS V13.00,2013-05-12 03:00:00,
2013-05-11 23:05:00,59.4,57.0,29.72,West,263,0.0,0.0,92,0.00,,BKN110,0.63,VWS V13.00,2013-05-12 03:05:00,
2013-05-11 23:10:00,59.2,56.9,29.72,West,263,0.0,0.0,92,0.00,,BKN110,0.63,VWS V13.00,2013-05-12 03:10:00,
2013-05-11 23:15:00,59.0,56.7,29.72,West,263,0.0,0.0,92,0.00,,BKN110,0.63,VWS V13.00,2013-05-12 03:15:00,
2013-05-11 23:20:00,59.0,56.7,29.72,West,263,0.0,0.0,92,0.00,,BKN110,0.63,VWS V13.00,2013-05-12 03:20:00,
2013-05-11 23:25:00,59.2,57.2,29.72,WSW,247,0.0,0.0,93,0.00,,BKN110,0.63,VWS V13.00,2013-05-12 03:25:00,
2013-05-11 23:31:00,59.2,57.2,29.72,WSW,247,0.0,0.0,93,0.00,,BKN110,0.63,VWS V13.00,2013-05-12 03:31:00,
2013-05-11 23:36:00,59.0,57.0,29.72,WSW,249,0.0,0.0,93,0.00,,CLR,0.63,VWS V13.00,2013-05-12 03:36:00,
2013-05-11 23:41:00,58.8,56.8,29.72,WSW,256,0.0,0.0,93,0.00,,CLR,0.63,VWS V13.00,2013-05-12 03:41:00,
2013-05-11 23:46:00,58.8,56.8,29.72,WSW,255,0.0,0.0,93,0.00,,CLR,0.63,VWS V13.00,2013-05-12 03:46:00,
2013-05-11 23:51:00,58.8,56.8,29.72,WSW,255,0.0,0.0,93,0.00,,CLR,0.63,VWS V13.00,2013-05-12 03:51:00,
2013-05-11 23:56:00,58.6,56.6,29.72,WSW,255,0.0,0.0,93,0.00,,CLR,0.63,VWS V13.00,2013-05-12 03:56:00,